Date,TemperatureHighF,TemperatureAvgF,TemperatureLowF,DewpointHighF,DewpointAvgF,DewpointLowF,HumidityHigh,HumidityAvg,HumidityLow,PressureMaxIn,PressureMinIn,WindSpeedMaxMPH,WindSpeedAvgMPH,GustSpeedMaxMPH,PrecipitationSumIn
2013-1-1,39.0,36.9,34.0,31.0,26.7,18.0,78,67,45,0.00,40.00,8,4,15,0.00
2013-1-2,34.0,31.7,27.0,28.0,23.5,13.0,90,73,44,0.00,40.00,5,2,6,0.00
2013-1-3,34.0,28.3,22.0,19.0,15.4,11.0,72,59,38,0.00,40.00,6,4,9,0.00
2013-1-4,35.0,29.6,24.0,19.0,17.7,17.0,74,61,47,0.00,40.00,13,8,19,0.00
2013-1-5,40.0,33.7,27.0,19.0,17.1,16.0,64,51,41,0.00,40.00,20,6,27,0.00
2013-1-6,41.0,39.1,36.0,27.0,24.6,23.0,70,56,51,0.00,40.00,8,5,11,0.00
2013-1-7,36.0,33.7,32.0,28.0,25.1,24.0,77,71,62,0.00,40.00,15,6,18,0.00
2013-1-8,47.0,39.9,32.0,28.0,26.0,23.0,78,58,44,0.00,40.00,6,3,8,0.00
2013-1-9,57.0,46.7,39.0,42.0,35.5,27.0,79,65,54,0.00,40.00,9,4,14,0.00
2013-1-10,51.0,46.1,39.0,30.0,27.3,24.0,62,48,40,0.00,40.00,7,4,11,0.00
2013-1-11,48.0,41.5,41.0,45.0,34.8,26.0,100,72,53,0.00,40.00,9,5,13,0.06
2013-1-12,65.0,53.2,44.0,52.0,49.7,44.0,100,81,58,0.00,40.00,7,4,8,0.05
2013-1-13,65.0,60.5,56.0,55.0,53.8,51.0,92,79,66,0.00,40.00,8,3,10,0.00
2013-1-14,63.0,52.6,37.0,55.0,46.3,37.0,100,80,72,0.00,40.00,15,7,19,0.65
2013-1-15,35.0,33.4,32.0,35.0,33.4,32.0,100,100,100,0.00,40.00,8,4,11,1.61
2013-1-16,44.0,37.3,31.0,42.0,37.1,31.0,100,100,93,0.00,40.00,8,4,10,3.09
2013-1-17,44.0,37.2,32.0,41.0,30.0,20.0,99,77,46,0.00,40.00,8,4,11,0.09
2013-1-18,35.0,30.6,27.0,28.0,14.6,7.0,90,53,32,0.00,40.00,12,5,19,0.00
2013-1-19,52.0,42.2,31.0,20.0,16.2,11.0,51,36,24,0.00,40.00,9,4,17,0.00
2013-1-20,49.0,42.5,31.0,27.0,15.9,2.0,54,35,22,0.00,40.00,23,12,31,0.00
2013-1-21,43.0,33.1,23.0,16.0,9.3,3.0,50,37,28,0.00,40.00,17,6,26,0.00
2013-1-22,24.0,14.2,9.0,6.0,-6.6,-11.0,57,39,28,0.00,40.00,19,12,26,0.00
2013-1-23,21.0,15.9,8.0,12.0,-1.6,-6.0,84,47,30,0.00,40.00,14,5,18,0.00
2013-1-24,20.0,15.6,12.0,15.0,5.5,-1.0,96,68,41,0.00,40.00,17,8,28,0.09
2013-1-25,20.0,16.1,11.0,16.0,8.6,1.0,92,73,51,0.00,40.00,9,4,17,0.03
2013-1-26,29.0,24.7,18.0,25.0,19.7,16.0,95,81,69,0.00,40.00,10,4,13,0.05
2013-1-27,33.0,27.0,20.0,23.0,18.6,15.0,80,71,54,0.00,40.00,7,3,9,0.02
2013-1-28,54.0,41.6,29.0,46.0,36.0,22.0,100,81,67,0.00,40.00,9,4,20,1.28
2013-1-29,68.0,60.3,50.0,53.0,49.7,46.0,89,69,54,0.00,40.00,8,4,11,0.04
2013-1-30,66.0,59.5,53.0,58.0,53.8,50.0,100,82,72,0.00,40.00,15,6,23,2.20
2013-1-31,33.0,30.0,26.0,24.0,14.9,13.0,71,53,47,0.00,40.00,19,13,33,1.97
2013-2-1,28.0,19.1,11.0,23.0,4.0,-1.0,86,52,40,0.00,40.00,21,14,29,0.00
2013-2-2,28.0,20.4,11.0,22.0,9.7,0.0,87,64,42,0.00,40.00,8,3,10,0.00
2013-2-3,32.0,27.3,24.0,26.0,21.0,14.0,97,78,56,0.00,40.00,17,7,24,0.03
2013-2-4,34.0,27.5,19.0,23.0,12.8,8.0,64,54,44,0.00,40.00,18,5,24,0.01
2013-2-5,43.0,39.4,34.0,33.0,30.4,28.0,81,70,63,0.00,40.00,11,5,17,0.00
2013-2-6,41.0,36.3,30.0,32.0,25.9,23.0,90,67,49,0.00,40.00,18,7,24,0.00
2013-2-7,45.0,32.8,28.0,28.0,25.1,23.0,86,73,44,0.00,40.00,8,4,11,0.00
2013-2-8,37.0,31.7,29.0,37.0,28.4,20.0,100,89,63,0.00,40.00,20,6,24,0.08
2013-2-9,36.0,30.0,24.0,20.0,12.9,7.0,73,51,30,0.00,40.00,21,14,26,0.01
2013-2-10,41.0,32.8,26.0,16.0,10.8,6.0,51,40,31,0.00,40.00,10,5,15,0.00
2013-2-11,59.0,50.3,35.0,47.0,37.6,19.0,91,64,31,0.00,40.00,16,8,29,0.04
2013-2-12,54.0,47.9,41.0,22.0,14.6,9.0,47,27,16,0.00,40.00,14,6,20,0.00
2013-2-13,40.0,35.6,30.0,32.0,24.5,13.0,99,67,33,0.00,40.00,7,4,10,0.04
2013-2-14,43.0,34.8,25.0,31.0,25.8,20.0,99,73,42,0.00,40.00,7,4,11,0.04
2013-2-15,52.0,40.3,32.0,36.0,29.7,24.0,99,69,41,0.00,40.00,17,5,21,0.09
2013-2-16,32.0,27.8,22.0,32.0,24.1,14.0,100,87,62,0.00,40.00,13,5,19,0.06
2013-2-17,20.0,17.9,15.0,16.0,8.2,0.0,94,66,44,0.00,40.00,20,13,25,0.00
2013-2-18,41.0,26.6,14.0,18.0,8.7,4.0,70,49,27,0.00,40.00,9,4,11,0.00
2013-2-19,42.0,37.0,32.0,31.0,21.5,13.0,83,54,44,0.00,40.00,16,7,23,0.01
2013-2-20,33.0,28.9,24.0,15.0,10.3,7.0,60,46,33,0.00,40.00,23,14,30,0.01
2013-2-21,33.0,27.1,16.0,14.0,11.4,10.0,77,53,41,0.00,40.00,15,11,20,0.00
2013-2-22,31.0,28.0,25.0,24.0,20.5,14.0,82,74,62,0.00,40.00,6,4,9,0.14
2013-2-23,45.0,36.6,30.0,37.0,30.6,26.0,87,79,69,0.00,40.00,4,3,6,0.14
2013-2-24,45.0,38.9,33.0,33.0,25.5,17.0,100,66,33,0.00,40.00,15,9,23,0.00
2013-2-25,38.0,31.4,22.0,18.0,16.6,15.0,74,55,43,0.00,40.00,6,3,8,0.00
2013-2-26,32.0,30.8,30.0,26.0,19.8,17.0,79,64,58,0.00,40.00,4,2,5,0.02
2013-3-5,46.0,39.5,30.0,31.0,24.1,19.0,99,58,33,0.00,40.00,13,8,15,0.10
2013-3-6,32.0,29.2,28.0,32.0,29.1,28.0,100,94,99,0.00,40.00,14,8,23,0.45
2013-3-7,36.0,32.5,28.0,27.0,25.1,24.0,86,74,64,0.00,40.00,16,10,22,0.00
2013-3-8,37.0,31.6,28.0,27.0,24.1,22.0,89,74,59,0.00,40.00,24,12,32,0.00
2013-3-9,51.0,37.1,27.0,25.0,21.2,14.0,81,56,28,0.00,40.00,12,4,14,0.00
2013-3-10,56.0,48.7,40.0,26.0,19.7,12.0,48,32,26,0.00,40.00,13,6,17,0.00
2013-3-11,54.0,49.6,45.0,47.0,27.1,13.0,84,46,21,0.00,40.00,16,8,23,0.01
2013-3-12,53.0,47.5,34.0,51.0,39.9,27.0,99,76,45,0.00,40.00,17,12,24,0.61
2013-3-13,41.0,35.5,28.0,26.0,19.8,14.0,77,54,33,0.00,40.00,19,13,26,0.02
2013-3-14,39.0,32.4,24.0,18.0,12.7,10.0,72,46,30,0.00,40.00,22,15,28,0.00
2013-3-15,54.0,43.2,28.0,32.0,21.7,11.0,54,42,34,0.00,40.00,12,7,18,0.00
2013-3-16,59.0,48.1,39.0,48.0,41.0,31.0,95,78,56,0.00,40.00,13,6,20,0.22
2013-3-17,33.0,31.2,29.0,33.0,31.2,29.0,100,100,99,0.00,40.00,6,4,9,0.56
2013-3-18,32.0,29.2,27.0,32.0,29.2,27.0,100,99,99,0.00,40.00,6,4,8,0.96
2013-3-19,51.0,40.8,31.0,38.0,23.8,5.0,100,60,20,0.00,40.00,24,10,40,0.20
2013-3-20,46.0,37.5,29.0,26.0,10.4,5.0,81,34,19,0.00,40.00,22,11,29,0.00
2013-3-21,34.0,25.7,20.0,26.0,9.9,4.0,81,52,38,0.00,40.00,19,13,26,0.00
2013-3-22,43.0,32.9,20.0,16.0,11.5,8.0,63,42,29,0.00,40.00,17,12,21,0.00
2013-3-23,50.0,38.2,28.0,16.0,13.9,11.0,53,38,20,0.00,40.00,10,6,16,0.00
2013-3-24,38.0,31.3,28.0,28.0,22.4,17.0,99,72,42,0.00,40.00,6,4,9,0.42
2013-3-25,32.0,30.2,27.0,32.0,30.1,27.0,100,100,99,0.00,40.00,11,4,14,0.75
2013-3-26,39.0,34.3,28.0,30.0,27.0,23.0,100,75,54,0.00,40.00,13,9,23,0.01
2013-3-27,39.0,33.3,27.0,28.0,24.1,20.0,90,70,48,0.00,40.00,18,11,24,0.00
2013-3-28,39.0,36.2,32.0,27.0,24.6,23.0,74,62,53,0.00,40.00,17,11,22,0.00
2013-3-29,49.0,40.8,33.0,29.0,24.9,18.0,77,55,30,0.00,40.00,15,6,19,0.00
2013-3-30,54.0,45.6,36.0,27.0,23.1,20.0,62,42,26,0.00,40.00,14,5,19,0.00
2013-3-31,51.0,46.3,41.0,47.0,35.7,-99.9,93,74,40,0.00,40.00,12,5,19,0.22
2013-4-1,51.0,46.6,42.0,42.0,37.2,33.0,83,69,59,0.00,40.00,13,7,18,0.03